This demonstration page uses our WeatherBlox Daily Observations layout. Learn more.

Left ArrowRight Arrow

Hourly Observations for October 22, 2020

Temp ( °F °C ) Dew Point ( °F °C ) Humidity (%) Winds ( mph kmh ) Pressure ( in mb ) Visibility ( mi km ) Precip ( " mm )
12:53 am 00:53 Clear 72 22.2 58 14.4 61 61 SE 14 22 29.76 1008 10 16 0.00 0.00
1:53 am 01:53 Clear 70 21.1 57 13.9 64 64 SSE 13 20 29.75 1008 10 16 0.00 0.00
2:53 am 02:53 Clear 70 21.1 57 13.9 64 64 SE 12 19 29.75 1008 10 16 0.00 0.00
3:53 am 03:53 Clear 70 21.1 57 13.9 64 64 SE 15 24 29.74 1007 10 16 0.00 0.00
4:53 am 04:53 Clear 68 20 57 13.9 68 68 SE 12 19 29.74 1007 10 16 0.00 0.00
5:53 am 05:53 Clear 67 19.4 57 13.9 71 71 SE 13 20 29.75 1007 10 16 0.00 0.00
6:53 am 06:53 Clear 67 19.4 58 14.4 73 73 SE 13 20 29.75 1008 10 16 0.00 0.00
7:53 am 07:53 Clear 66 18.9 58 14.4 75 75 SSE 12 19 29.77 1008 10 16 0.00 0.00
8:53 am 08:53 Sunny 67 19.4 59 15 76 76 SSE 15 24 29.78 1009 10 16 0.00 0.00
9:53 am 09:53 Sunny 71 21.7 59 15 66 66 SSE 14 22 29.79 1009 10 16 0.00 0.00
10:53 am 10:53 Sunny 76 24.4 58 14.4 54 54 SSE 13 20 29.80 1009 10 16 0.00 0.00
11:53 am 11:53 Sunny 80 26.7 58 14.4 47 47 SSE 14 22 29.78 1009 10 16 0.00 0.00
12:53 pm 12:53 Sunny 84 28.9 57 13.9 40 40 S 13 20 29.76 1008 10 16 0.00 0.00
1:53 pm 13:53 Sunny 86 30 54 12.2 33 33 SW 8 13 29.73 1007 10 16 0.00 0.00
2:53 pm 14:53 Sunny 90 32.2 51 10.6 26 26 SSW 12 19 29.68 1005 10 16 0.00 0.00
3:53 pm 15:53 Sunny 92 33.3 43 6.1 18 18 VRB 6 9 29.66 1004 10 16 0.00 0.00
4:53 pm 16:53 Sunny 92 33.3 41 5 17 17 SSE 8 13 29.64 1004 10 16 0.00 0.00
5:53 pm 17:53 Sunny 92 33.3 41 5 17 17 SSW 6 9 29.64 1004 10 16 0.00 0.00
6:53 pm 18:53 Sunny 90 32.2 35 1.7 14 14 W 8 13 29.65 1004 10 16 0.00 0.00
7:53 pm 19:53 Clear 82 27.8 34 1.1 18 18 W 8 13 29.69 1005 10 16 0.00 0.00
8:53 pm 20:53 Clear 76 24.4 33 0.6 21 21 W 6 9 29.72 1006 10 16 0.00 0.00
9:53 pm 21:53 Clear 73 22.8 34 1.1 24 24 NNE 6 9 29.73 1007 10 16 0.00 0.00
10:53 pm 22:53 Clear 75 23.9 57 13.9 54 54 SE 8 13 29.74 1007 10 16 0.00 0.00
11:53 pm 23:53 Clear 72 22.2 58 14.4 61 61 ESE 9 15 29.76 1008 10 16 0.00 0.00

Powered by AerisWeather